CFG786 EDDF-LGMK

Flight info

Callsign CFG786
Flight time N/A
Altitude 35000
Route CINDY8S/18 CINDY Z74 LAMPU DCT NOMBO Y161 MAH DCT VAVOR DCT RADIZ DCT GORPA DCT EVTON DCT SOLGU DCT AKIKA DCT MAVAR DCT BITLA UN137 AGAPU
Aircraft A321/M-SDE3FGHIRWY/LB1

Departure

Time 2026-05-05 15:31
Airport Frankfurt Main Airport (EDDF)

Arrival

Time N/A
Airport Mykonos Island National Airport (LGMK)
Time Latitude Longitude Altitude Speed Heading
2026-05-05 14:56 50.04975 8.57684 357 ft 0 kts 22°
2026-05-05 15:14 50.04959 8.57674 357 ft 4 kts 11°
2026-05-05 15:14 50.04933 8.57671 358 ft 4 kts
2026-05-05 15:15 50.04911 8.57660 359 ft 4 kts 34°
2026-05-05 15:15 50.04899 8.57639 362 ft 4 kts 107°
2026-05-05 15:15 50.04911 8.57604 364 ft 4 kts 119°
2026-05-05 15:15 50.04915 8.57595 363 ft 0 kts 115°
2026-05-05 15:16 50.04907 8.57620 361 ft 4 kts 114°
2026-05-05 15:16 50.04905 8.57629 365 ft 0 kts 114°
2026-05-05 15:19 50.04902 8.57640 363 ft 2 kts 114°
2026-05-05 15:19 50.04893 8.57670 358 ft 4 kts 114°
2026-05-05 15:20 50.04879 8.57718 361 ft 6 kts 113°
2026-05-05 15:20 50.04862 8.57783 362 ft 5 kts 112°
2026-05-05 15:20 50.04856 8.57807 361 ft 2 kts 112°
2026-05-05 15:20 50.04851 8.57824 360 ft 2 kts 112°
2026-05-05 15:21 50.04850 8.57830 360 ft 0 kts 112°
2026-05-05 15:21 50.04840 8.57859 359 ft 8 kts 121°
2026-05-05 15:21 50.04763 8.57924 360 ft 15 kts 170°
2026-05-05 15:21 50.04697 8.57853 358 ft 10 kts 246°
2026-05-05 15:22 50.04676 8.57769 358 ft 6 kts 249°
2026-05-05 15:22 50.04659 8.57697 365 ft 9 kts 249°
2026-05-05 15:22 50.04629 8.57573 358 ft 15 kts 251°
2026-05-05 15:22 50.04583 8.57379 363 ft 23 kts 249°
2026-05-05 15:23 50.04528 8.57150 364 ft 21 kts 250°
2026-05-05 15:23 50.04479 8.56945 364 ft 18 kts 250°
2026-05-05 15:23 50.04438 8.56774 361 ft 16 kts 249°
2026-05-05 15:23 50.04401 8.56616 361 ft 16 kts 250°
2026-05-05 15:24 50.04354 8.56420 363 ft 22 kts 250°
2026-05-05 15:24 50.04296 8.56174 361 ft 26 kts 249°
2026-05-05 15:24 50.04227 8.55889 356 ft 29 kts 249°
2026-05-05 15:24 50.04158 8.55600 356 ft 28 kts 250°
2026-05-05 15:25 50.04090 8.55316 359 ft 31 kts 249°
2026-05-05 15:25 50.04018 8.55015 357 ft 25 kts 250°
2026-05-05 15:25 50.03964 8.54789 356 ft 20 kts 249°
2026-05-05 15:25 50.03912 8.54575 352 ft 24 kts 248°
2026-05-05 15:26 50.03864 8.54382 355 ft 15 kts 242°
2026-05-05 15:26 50.03803 8.54232 351 ft 19 kts 245°
2026-05-05 15:26 50.03753 8.54024 353 ft 24 kts 249°
2026-05-05 15:26 50.03694 8.53774 347 ft 24 kts 250°
2026-05-05 15:27 50.03635 8.53541 337 ft 22 kts 248°
2026-05-05 15:27 50.03581 8.53320 336 ft 23 kts 250°
2026-05-05 15:27 50.03528 8.53091 335 ft 22 kts 249°
2026-05-05 15:27 50.03476 8.52883 332 ft 9 kts 247°
2026-05-05 15:28 50.03451 8.52799 335 ft 8 kts 246°
2026-05-05 15:28 50.03432 8.52725 331 ft 0 kts 250°
2026-05-05 15:29 50.03416 8.52657 332 ft 14 kts 250°
2026-05-05 15:29 50.03363 8.52596 335 ft 0 kts 181°
2026-05-05 15:30 50.03359 8.52595 335 ft 4 kts 181°
2026-05-05 15:30 50.03066 8.52596 336 ft 85 kts 179°
2026-05-05 15:30 50.02218 8.52604 335 ft 155 kts 180°
2026-05-05 15:31 50.00987 8.52626 683 ft 184 kts 182°
2026-05-05 15:31 49.99714 8.52639 1673 ft 182 kts 182°
2026-05-05 15:31 49.98451 8.52672 2527 ft 177 kts 180°
2026-05-05 15:31 49.97203 8.52869 2798 ft 195 kts 162°
2026-05-05 15:32 49.96075 8.54207 2940 ft 220 kts 126°
2026-05-05 15:32 49.95276 8.56345 3228 ft 235 kts 121°
2026-05-05 15:32 49.94481 8.58577 3801 ft 239 kts 119°
2026-05-05 15:32 49.94012 8.61079 3971 ft 253 kts 96°
2026-05-05 15:33 49.93909 8.63929 4153 ft 273 kts 94°
2026-05-05 15:33 49.93788 8.66875 4913 ft 274 kts 100°
2026-05-05 15:33 49.93148 8.69635 5641 ft 273 kts 126°
2026-05-05 15:33 49.91826 8.71711 6392 ft 271 kts 146°
2026-05-05 15:34 49.90285 8.73404 7116 ft 272 kts 146°
2026-05-05 15:34 49.88803 8.75249 7825 ft 276 kts 135°
2026-05-05 15:34 49.87645 8.77640 8533 ft 280 kts 121°
2026-05-05 15:34 49.86697 8.80289 9253 ft 282 kts 121°
2026-05-05 15:35 49.85738 8.82952 9937 ft 285 kts 121°
2026-05-05 15:35 49.84737 8.85713 10194 ft 304 kts 121°
2026-05-05 15:35 49.83663 8.88665 10320 ft 325 kts 121°
2026-05-05 15:35 49.82518 8.91807 10442 ft 345 kts 121°
2026-05-05 15:36 49.81315 8.95112 10737 ft 357 kts 121°
2026-05-05 15:36 49.80111 8.98424 11298 ft 361 kts 121°
2026-05-05 15:36 49.78874 9.01820 11916 ft 364 kts 121°
2026-05-05 15:36 49.77628 9.05235 12522 ft 367 kts 121°
2026-05-05 15:37 49.76442 9.08758 13125 ft 372 kts 114°
2026-05-05 15:37 49.75656 9.12589 13701 ft 377 kts 105°
2026-05-05 15:37 49.74918 9.16486 14185 ft 379 kts 113°
2026-05-05 15:37 49.73740 9.20066 14691 ft 379 kts 124°
2026-05-05 15:38 49.72127 9.23294 15215 ft 380 kts 133°
2026-05-05 15:38 49.70377 9.26370 15753 ft 382 kts 133°
2026-05-05 15:38 49.68620 9.29463 16269 ft 385 kts 133°
2026-05-05 15:38 49.66850 9.32584 16795 ft 388 kts 133°
2026-05-05 15:39 49.65064 9.35728 17306 ft 391 kts 133°
2026-05-05 15:39 49.63259 9.38902 17819 ft 394 kts 134°
2026-05-05 15:39 49.61247 9.41783 18294 ft 395 kts 144°
2026-05-05 15:39 49.58947 9.44098 18740 ft 397 kts 150°
2026-05-05 15:40 49.56563 9.46266 19204 ft 399 kts 150°
2026-05-05 15:40 49.54168 9.48446 19659 ft 401 kts 150°
2026-05-05 15:40 49.51764 9.50638 20121 ft 403 kts 150°
2026-05-05 15:40 49.49347 9.52849 20571 ft 406 kts 150°
2026-05-05 15:41 49.46910 9.55073 21022 ft 408 kts 150°
2026-05-05 15:41 49.44463 9.57307 21469 ft 411 kts 150°
2026-05-05 15:41 49.41999 9.59552 21916 ft 413 kts 150°
2026-05-05 15:41 49.39518 9.61803 22348 ft 415 kts 150°
2026-05-05 15:42 49.37021 9.64064 22792 ft 418 kts 150°
2026-05-05 15:42 49.34543 9.66439 23208 ft 421 kts 145°
2026-05-05 15:42 49.32309 9.69367 23587 ft 425 kts 136°
2026-05-05 15:42 49.30210 9.72601 23955 ft 427 kts 136°
2026-05-05 15:43 49.28108 9.75831 24327 ft 429 kts 136°
2026-05-05 15:43 49.25995 9.79066 24692 ft 431 kts 136°
2026-05-05 15:43 49.23889 9.82275 25051 ft 433 kts 137°
2026-05-05 15:43 49.21750 9.85531 25404 ft 434 kts 137°
2026-05-05 15:44 49.19602 9.88791 25754 ft 436 kts 137°
2026-05-05 15:44 49.17442 9.92062 26095 ft 438 kts 137°
2026-05-05 15:44 49.15276 9.95334 26440 ft 439 kts 137°
2026-05-05 15:44 49.13096 9.98621 26787 ft 440 kts 137°
2026-05-05 15:45 49.10912 10.01916 27131 ft 442 kts 137°
2026-05-05 15:45 49.08718 10.05229 27472 ft 444 kts 137°
2026-05-05 15:45 49.06523 10.08547 27809 ft 445 kts 137°
2026-05-05 15:45 49.04299 10.11846 28213 ft 445 kts 138°
2026-05-05 15:46 49.02055 10.15067 28691 ft 442 kts 139°
2026-05-05 15:46 48.99798 10.18229 29174 ft 440 kts 140°
2026-05-05 15:46 48.97541 10.21358 29620 ft 438 kts 140°
2026-05-05 15:46 48.95291 10.24479 30049 ft 436 kts 140°
2026-05-05 15:47 48.93060 10.27584 30427 ft 435 kts 140°
2026-05-05 15:47 48.91589 10.29646 30680 ft 434 kts 139°
2026-05-05 15:47 48.88662 10.33775 31143 ft 433 kts 139°
2026-05-05 15:47 48.86461 10.36884 31481 ft 432 kts 139°
2026-05-05 15:48 48.84261 10.39985 31830 ft 431 kts 140°
2026-05-05 15:48 48.82079 10.43099 32143 ft 431 kts 138°
2026-05-05 15:48 48.79962 10.46327 32429 ft 432 kts 136°
2026-05-05 15:48 48.77902 10.49635 32704 ft 432 kts 136°
2026-05-05 15:49 48.75870 10.52985 32987 ft 432 kts 135°
2026-05-05 15:49 48.73837 10.56348 33267 ft 432 kts 136°
2026-05-05 15:49 48.71799 10.59691 33549 ft 432 kts 136°
2026-05-05 15:49 48.69743 10.63019 33820 ft 432 kts 137°
2026-05-05 15:50 48.67675 10.66324 34063 ft 433 kts 137°
2026-05-05 15:50 48.65596 10.69618 34281 ft 433 kts 137°
2026-05-05 15:50 48.63510 10.72912 34490 ft 434 kts 137°
2026-05-05 15:50 48.61416 10.76214 34689 ft 435 kts 137°
2026-05-05 15:51 48.59316 10.79521 34812 ft 436 kts 137°
2026-05-05 15:51 48.55136 10.86153 34836 ft 436 kts 137°
2026-05-05 15:52 48.50977 10.92833 34843 ft 437 kts 137°
2026-05-05 15:52 48.46829 10.99446 34841 ft 437 kts 138°
2026-05-05 15:53 48.42599 11.06025 34836 ft 437 kts 138°
2026-05-05 15:53 48.38349 11.12600 34830 ft 438 kts 138°
2026-05-05 15:54 48.34108 11.19180 34820 ft 438 kts 138°
2026-05-05 15:54 48.29855 11.25765 34801 ft 439 kts 139°
2026-05-05 15:55 48.25812 11.32653 34810 ft 445 kts 128°
2026-05-05 15:55 48.22683 11.40665 34804 ft 449 kts 124°
2026-05-05 15:56 48.19556 11.48786 34802 ft 450 kts 124°
2026-05-05 15:56 48.16409 11.56911 34797 ft 451 kts 124°
2026-05-05 15:57 48.13243 11.65028 34777 ft 452 kts 124°
2026-05-05 15:57 48.10072 11.73150 34772 ft 452 kts 124°
2026-05-05 15:58 48.06893 11.81281 34766 ft 453 kts 124°
2026-05-05 15:58 48.03701 11.89416 34762 ft 454 kts 124°
2026-05-05 15:59 48.00496 11.97554 34755 ft 454 kts 124°
2026-05-05 15:59 47.97285 12.05692 34748 ft 455 kts 124°
2026-05-05 16:00 47.93968 12.13720 34739 ft 452 kts 132°
2026-05-05 16:00 47.89597 12.20277 34736 ft 444 kts 144°
2026-05-05 16:01 47.84852 12.26192 34736 ft 445 kts 144°
2026-05-05 16:01 47.80099 12.32128 34730 ft 446 kts 144°
2026-05-05 16:02 47.75366 12.38031 34731 ft 447 kts 144°
2026-05-05 16:02 47.70593 12.43973 34729 ft 448 kts 144°
2026-05-05 16:03 47.65803 12.49919 34734 ft 449 kts 145°
2026-05-05 16:03 47.61168 12.56177 34743 ft 455 kts 137°
2026-05-05 16:04 47.56868 12.63071 34747 ft 456 kts 137°
2026-05-05 16:04 47.52552 12.69956 34754 ft 457 kts 136°
2026-05-05 16:05 47.48210 12.76851 34752 ft 457 kts 137°
2026-05-05 16:05 47.43865 12.83749 34768 ft 459 kts 137°
2026-05-05 16:06 47.39534 12.90603 34776 ft 460 kts 137°
2026-05-05 16:06 47.35160 12.97504 34789 ft 460 kts 137°
2026-05-05 16:07 47.30793 13.04379 34810 ft 461 kts 137°
2026-05-05 16:07 47.26403 13.11277 34828 ft 461 kts 137°
2026-05-05 16:08 47.22017 13.18155 34839 ft 460 kts 137°
2026-05-05 16:08 47.17620 13.25003 34853 ft 461 kts 137°
2026-05-05 16:09 47.13966 13.30692 34859 ft 460 kts 137°
2026-05-05 16:09 47.09573 13.37527 34869 ft 460 kts 137°
2026-05-05 16:10 47.05173 13.44355 34880 ft 460 kts 137°
2026-05-05 16:10 47.00767 13.51168 34895 ft 460 kts 137°
2026-05-05 16:11 46.96354 13.57978 34905 ft 460 kts 137°
2026-05-05 16:12 46.87516 13.71544 34907 ft 460 kts 137°
2026-05-05 16:13 46.76478 13.88417 34919 ft 460 kts 137°
2026-05-05 16:13 46.72049 13.95158 34932 ft 461 kts 137°
2026-05-05 16:14 46.63160 14.08635 34945 ft 461 kts 137°
2026-05-05 16:15 46.54231 14.22067 34951 ft 462 kts 137°
2026-05-05 16:16 46.45327 14.35453 34956 ft 463 kts 136°
2026-05-05 16:17 46.38609 14.45488 34977 ft 463 kts 137°
2026-05-05 16:18 46.31864 14.55513 34978 ft 463 kts 137°
2026-05-05 16:19 46.25119 14.65509 34977 ft 463 kts 137°
2026-05-05 16:19 46.18351 14.75490 34975 ft 464 kts 137°
2026-05-05 16:20 46.09339 14.88741 34968 ft 464 kts 137°
2026-05-05 16:22 45.98024 15.05295 34969 ft 464 kts 137°
2026-05-05 16:23 45.88940 15.18504 34957 ft 464 kts 137°
2026-05-05 16:23 45.82127 15.28378 34951 ft 464 kts 137°
2026-05-05 16:24 45.77570 15.34934 34962 ft 464 kts 137°
2026-05-05 16:25 45.70923 15.45036 34954 ft 465 kts 134°
2026-05-05 16:25 45.64407 15.55324 34956 ft 465 kts 134°
2026-05-05 16:26 45.55619 15.68828 34964 ft 465 kts 135°
2026-05-05 16:27 45.51174 15.75631 34974 ft 466 kts 135°
2026-05-05 16:27 45.46788 15.82340 34976 ft 466 kts 135°
2026-05-05 16:28 45.42370 15.89078 34981 ft 466 kts 135°
2026-05-05 16:28 45.37943 15.95822 34977 ft 466 kts 135°
2026-05-05 16:29 45.33519 16.02544 34977 ft 466 kts 135°
2026-05-05 16:29 45.29084 16.09256 34974 ft 466 kts 135°
2026-05-05 16:30 45.24649 16.15961 34973 ft 466 kts 135°
2026-05-05 16:30 45.20213 16.22660 34973 ft 466 kts 135°
2026-05-05 16:31 45.15761 16.29348 34971 ft 466 kts 135°
2026-05-05 16:31 45.11309 16.36021 34975 ft 466 kts 135°
2026-05-05 16:32 45.06854 16.42685 34972 ft 466 kts 135°
2026-05-05 16:32 45.02392 16.49338 34976 ft 466 kts 135°
2026-05-05 16:33 44.97927 16.55988 34972 ft 466 kts 135°
2026-05-05 16:33 44.93456 16.62627 34972 ft 466 kts 135°
2026-05-05 16:34 44.89011 16.69216 34973 ft 466 kts 135°